Lexington Weather

Lexington, Massachusetts, USA

72°F
9/22/2021 1:56pm 
  • Lexington Conditions: Overcast
  • Temperature: 72.3°F / 22.4°CColder 2.5°F than last hour.
  • Dew Point: 68.5°FIncreased 0.3°Fsince last hour.
  • Relative Humidity: 88%Increased 8.0% since last hour.
  • Wind: Wind from NNW NNW 4 mph, 10-min avg: 3 mph, gust: 10 mph
  • Barometer: 30.10 in Steady
  • Visibility: 10 miles
  • Rain Today: 0.00 in
  •   

Regional Weather Roundup
for Boston / Norton, MA

        
000
ASUS41 KBOX 161904
RWRBOX

REGIONAL WEATHER ROUNDUP
NATIONAL WEATHER SERVICE BOSTON/NORTON MA
300 PM EDT THU SEP 16 2021

NOTE:  "FAIR" INDICATES FEW OR NO CLOUDS BELOW 12,000 FEET WITH NO 
SIGNIFICANT WEATHER AND/OR OBSTRUCTIONS TO VISIBILITY.

MAZALL-162000-
EASTERN MASSACHUSETTS
  
CITY           SKY/WX    TMP DP  RH WIND       PRES   REMARKS
BOSTON         CLOUDY    67  62  84 NE13      30.28S FOG              
BEVERLY        CLOUDY    66  61  84 NE9       30.28S                  
LAWRENCE       CLOUDY    68  58  70 NE9       30.30F                  
BEDFORD        CLOUDY    68  63  84 NE9       30.27S                  
BLUE HILL      NOT AVBL                                               
NORWOOD        CLOUDY    71  64  78 NE10      30.26S                  
MARSHFIELD     CLOUDY    70  64  83 NE8       30.26S                  
PLYMOUTH       CLOUDY    69  64  84 NE7       30.26S                  
TAUNTON        CLOUDY    71  65  81 E6        30.25S                  
NEW BEDFORD    CLOUDY    73  66  78 E8        30.24S                  
$$

MAZALL-162000-
CAPE COD AND THE ISLANDS
  
CITY           SKY/WX    TMP DP  RH WIND       PRES   REMARKS
FALMOUTH       NOT AVBL                                               
HYANNIS        LGT RAIN  73  66  78 E6        30.23F                  
CHATHAM        PTSUNNY   70  64  81 NE6       30.26S                  
PROVINCETOWN   CLOUDY    68  65  90 NE9       30.27F                  
NANTUCKET      PTSUNNY   72  67  84 MISG      30.23S                  
MARTHAS VNYRD  PTSUNNY   71  67  87 NE15      30.24S                  
$$
 
MAZALL-162000-
CENTRAL AND WESTERN MASSACHUSETTS
  
CITY           SKY/WX    TMP DP  RH WIND       PRES   REMARKS
WORCESTER      CLOUDY    68  62  81 NE7       30.28F                  
FITCHBURG      LGT RAIN  66  62  87 VRB5      30.29S FOG              
ORANGE         CLOUDY    72  61  68 E6        30.27F                  
SPRINGFIELD    PTSUNNY   76  63  63 E8        30.22F                  
WESTFIELD      PTSUNNY   76  65  68 VRB3      30.23F                  
NORTH ADAMS    SUNNY     75  58  55 SE7       30.24F                  
PITTSFIELD     CLOUDY    74  60  61 SE6       30.24F                  
$$
 
RIZALL-162000-
RHODE ISLAND
  
CITY           SKY/WX    TMP DP  RH WIND       PRES   REMARKS
PROVIDENCE     PTSUNNY   73  67  81 E9        30.25F                  
NEWPORT        PTSUNNY   71  66  84 E7        30.24S                  
BLOCK ISLAND   CLOUDY    70  66  87 NE10      30.24F                  
SMITHFIELD     CLOUDY    69  65  86 E6        30.27S                  
WESTERLY       CLOUDY    70  67  90 E7        30.24S                  
$$
 
CTZALL-162000-
CONNECTICUT
  
CITY           SKY/WX    TMP DP  RH WIND       PRES   REMARKS
BRADLEY INTL   PTSUNNY   75  65  70 SE3       30.23F                  
HARTFORD       PTSUNNY   75  63  66 E6        30.23F                  
BRIDGEPORT     CLOUDY    75  67  76 E12       30.21F                  
DANBURY        CLOUDY    76  63  64 E7        30.23F                  
GROTON         PTSUNNY   73  65  75 E10       30.23S                  
NEW HAVEN      CLOUDY    74  69  85 E7        30.22F                  
CHESTER        CLOUDY    72  68  88 NE5       30.24S                  
MERIDEN        CLOUDY    75  63  66 SE7       30.23S                  
WILLIMANTIC    PTSUNNY   72  64  76 E6        30.24F                  
OXFORD         PTSUNNY   72  65  78 VRB6      30.25F                  
$$

MEZ002-015-021-024-NHZ003-005-008-011-012-014-VTZ005-008-162000-
NORTHERN NEW ENGLAND
  
CITY           SKY/WX    TMP DP  RH WIND       PRES   REMARKS
PORTLAND ME    MOSUNNY   69  56  62 E7        30.29F                  
BANGOR ME      MOSUNNY   71  53  52 N7        30.29S                  
CONCORD NH     CLOUDY    69  60  73 SE7       30.29S                  
MANCHESTER NH  PTSUNNY   70  56  61 E8        30.27F                  
NASHUA NH      CLOUDY    71  63  75 VRB7      30.28F                  
PORTSMOUTH NH  CLOUDY    67  50  53 E7        30.30S                  
JAFFREY NH     CLOUDY    66  63  90 VRB5      30.30F                  
KEENE NH       PTSUNNY   71  62  73 VRB5      30.26F                  
BURLINGTON VT  MOSUNNY   74  54  49 NW5       30.26F                  
MT. WASHINGTON PTSUNNY   52  43  71 SW3         N/A                   
$$

NYZ052-076-162000-
EASTERN NEW YORK
  
CITY           SKY/WX    TMP DP  RH WIND       PRES   REMARKS
ALBANY         MOSUNNY   72  61  68 CALM      30.23F                  
NEW YORK CITY  CLOUDY    75  63  66 NE14      30.19F                  
$$
 
ANZALL-162000-
MARINE OBSERVATIONS
  
STATION/POSITION TIME  TEMP    WIND        PRES    VSBY  WAVE
                       AIR SEA DIR/SP/G                  HT/PER
                 (UTC) (F)     (DEG/KT/KT) (MB)    (MI)  (FT/S)
BOSTON BUOY      1840      67   40/  8/ 10 1025.5F
BUZZARDS BAY     1800           50/ 16/ 17 1024.9F
NANTUCKET SOUND  1840   70 72   60/ 12/ 16 1024.0F
MASS BAY-STELLWA 1804   65      60/ 14/ 17 1025.1F  1 7/8  2/ 5
ISLE OF SHOALS   1800   64      50/ 14/ 15 1025.2R
S OF BLOCK IS    1826      69                N/A           3/ 4
$$

......................KEY.........................
  SKY/WX - SKY CONDITION/PRESENT WEATHER
  TMP    - TEMPERATURE IN FAHRENHEIT
  DWPT   - DEWPOINT IN FAHRENHEIT
  RH     - RELATIVE HUMIDITY IN PERCENT
  WIND   - DIRECTION AND SPEED IN MPH
  PRES   - MEAN SEA LEVEL PRESSURE IN INCHES OF HG
  WCI    - WIND CHILL INDEX
  VSB    - VISIBILITY IN MILES
  HX     - HEAT INDEX
  TC     - TEMPERATURE IN CELSIUS
  VRB    - VARIABLE WIND DIRECTION
  N/A    - NOT AVAILABLE
  
      

Other recent Regional Weather Roundups

Wed Sep 22, 1:04pm

Wed Sep 22, 12:05pm

Wed Sep 22, 11:04am

Wed Sep 22, 10:04am

Wed Sep 22, 9:04am

Wed Sep 22, 8:04am

Wed Sep 22, 7:04am

Wed Sep 22, 6:04am

Wed Sep 22, 5:04am

Wed Sep 22, 4:04am

Wed Sep 22, 3:04am

Wed Sep 22, 2:04am

Wed Sep 22, 1:04am

Wed Sep 22, 12:04am

Tue Sep 21, 11:04pm

Tue Sep 21, 10:04pm

Tue Sep 21, 9:04pm

Tue Sep 21, 8:04pm

Tue Sep 21, 7:04pm

Tue Sep 21, 6:04pm

Tue Sep 21, 5:04pm

Tue Sep 21, 4:04pm

Tue Sep 21, 3:04pm

Tue Sep 21, 2:04pm

Tue Sep 21, 1:04pm

Tue Sep 21, 12:04pm

Tue Sep 21, 11:04am

Tue Sep 21, 10:04am

Tue Sep 21, 9:04am

Tue Sep 21, 8:04am

Tue Sep 21, 7:04am

Tue Sep 21, 6:04am

Tue Sep 21, 5:04am

Tue Sep 21, 4:04am

Tue Sep 21, 3:04am

Tue Sep 21, 2:04am

Tue Sep 21, 1:04am

Tue Sep 21, 12:04am

Mon Sep 20, 11:04pm

Mon Sep 20, 10:04pm

Mon Sep 20, 9:04pm

Mon Sep 20, 8:04pm

Mon Sep 20, 7:04pm

Mon Sep 20, 6:04pm

Mon Sep 20, 5:04pm

Mon Sep 20, 4:04pm

Mon Sep 20, 3:04pm

Mon Sep 20, 2:04pm

Mon Sep 20, 1:04pm

Mon Sep 20, 12:04pm

Mon Sep 20, 11:04am

Mon Sep 20, 10:04am

Mon Sep 20, 9:04am

Mon Sep 20, 7:04am

Mon Sep 20, 6:04am

Mon Sep 20, 5:04am

Mon Sep 20, 4:04am

Mon Sep 20, 3:04am

Mon Sep 20, 2:04am

Mon Sep 20, 1:04am

Mon Sep 20, 12:04am

Sun Sep 19, 11:04pm

Sun Sep 19, 10:04pm

Sun Sep 19, 9:04pm

Sun Sep 19, 8:04pm

Sun Sep 19, 7:04pm

Sun Sep 19, 6:04pm

Sun Sep 19, 5:04pm

Sun Sep 19, 4:04pm

Sun Sep 19, 3:04pm

Sun Sep 19, 2:05pm

Sun Sep 19, 1:04pm

Sun Sep 19, 12:04pm

Sun Sep 19, 11:04am

Sun Sep 19, 10:05am

Sun Sep 19, 9:04am

Sun Sep 19, 8:04am

Sun Sep 19, 7:04am

Sun Sep 19, 6:04am

Sun Sep 19, 5:04am

Sun Sep 19, 4:04am

Sun Sep 19, 3:04am

Sun Sep 19, 2:04am

Sun Sep 19, 1:04am

Sun Sep 19, 12:04am

Sat Sep 18, 11:05pm

Sat Sep 18, 10:04pm

Sat Sep 18, 9:04pm

Sat Sep 18, 8:04pm

Sat Sep 18, 7:04pm

Sat Sep 18, 6:04pm

Sat Sep 18, 5:04pm

Sat Sep 18, 4:04pm

Sat Sep 18, 3:04pm

Sat Sep 18, 2:04pm

Sat Sep 18, 1:04pm

Sat Sep 18, 12:04pm

Sat Sep 18, 11:04am

Sat Sep 18, 10:04am

Sat Sep 18, 9:04am

Sat Sep 18, 8:04am

Sat Sep 18, 7:04am

Sat Sep 18, 6:04am

Sat Sep 18, 5:04am

Sat Sep 18, 4:04am

Sat Sep 18, 3:04am

Sat Sep 18, 2:04am

Sat Sep 18, 1:04am

Sat Sep 18, 12:04am

Fri Sep 17, 11:04pm

Fri Sep 17, 10:04pm

Fri Sep 17, 9:04pm

Fri Sep 17, 8:04pm

Fri Sep 17, 7:04pm

Fri Sep 17, 6:04pm

Fri Sep 17, 5:04pm

Fri Sep 17, 4:04pm

Fri Sep 17, 3:04pm

Fri Sep 17, 2:04pm

Fri Sep 17, 1:04pm

Fri Sep 17, 12:05pm

Fri Sep 17, 11:04am

Fri Sep 17, 10:04am

Fri Sep 17, 9:04am

Fri Sep 17, 8:04am

Fri Sep 17, 7:04am

Fri Sep 17, 6:04am

Fri Sep 17, 5:04am

Fri Sep 17, 4:04am

Fri Sep 17, 3:04am

Fri Sep 17, 2:04am

Fri Sep 17, 1:04am

Fri Sep 17, 12:04am

Thu Sep 16, 11:04pm

Thu Sep 16, 10:04pm

Thu Sep 16, 9:04pm

Thu Sep 16, 8:04pm

Thu Sep 16, 7:04pm

Thu Sep 16, 6:04pm

Thu Sep 16, 5:04pm

Thu Sep 16, 4:04pm

Thu Sep 16, 2:04pm

Thu Sep 16, 1:05pm

Thu Sep 16, 12:04pm

Thu Sep 16, 11:05am

Thu Sep 16, 10:05am

Thu Sep 16, 9:04am

Thu Sep 16, 8:04am

Thu Sep 16, 7:04am

Thu Sep 16, 6:04am

Thu Sep 16, 5:04am

Thu Sep 16, 4:04am

Thu Sep 16, 3:04am

Thu Sep 16, 2:04am

Thu Sep 16, 1:04am

Thu Sep 16, 12:04am

Wed Sep 15, 11:04pm

Wed Sep 15, 10:04pm

Wed Sep 15, 9:04pm

Wed Sep 15, 8:04pm

Wed Sep 15, 7:04pm

Wed Sep 15, 6:04pm

Wed Sep 15, 5:05pm

Wed Sep 15, 4:04pm

Wed Sep 15, 3:04pm

Wed Sep 15, 2:04pm

Meta data:

ID: 688f59ad-f9f4-40bc-b02d-f9a6e8d1a62d
Link: https://api.weather.gov/products/688f59ad-f9f4-40bc-b02d-f9a6e8d1a62d